[[{"header":{"parameterUnit":"m.s-1","parameterCategory":1,"la1":30.2991,"la2":30.254,"lo1":-89.0895,"lo2":-89.0444,"dy":0.0017,"dx":0.0017,"nx":28,"ny":28,"refTime":"2025-01-22T09:00:00:Z","depth":0,"parameterNumber":2,"parameterNumberName":"U-component_of_WINDS"},"data":[0,0,0,0,0,0,0,0,0,0,0,0,0,0,0,0,0,0,0,0,0,0,0,0,0,0,0,0,0,0,0,0,0,0,0,0,0,0,0,0,0,0,0,0,0,0,0,0,0,0,0,0,0,0,0,0,0,0,0.3801,0.38,0,0.3757,0.3757,0.3756,0.3734,0.3734,0.3734,0.3734,0.3686,0.3685,0.3683,0,0,0,0,0,0,0,0,0,0,0,0,0,0.3862,0.3861,0.3801,0.38,0.38,0.3757,0.3757,0.3756,0.3734,0.3734,0.3734,0.3734,0.3686,0.3685,0.3683,0,0,0,0,0,0,0,0,0,0,0,0,0,0.3828,0.386,0.3801,0.3784,0.3782,0.3757,0.3757,0.3756,0.3734,0.3734,0.3734,0.3734,0.3687,0.3685,0.3683,0.3671,0,0,0.3677,0.3676,0,0,0,0,0,0,0,0,0.383,0.3826,0.3787,0.3785,0.3783,0.3751,0.376,0.3727,0.3734,0.3752,0.3734,0.3734,0.3707,0.3704,0.3695,0.3669,0.3667,0.3677,0.3676,0.3675,0.3674,0,0,0,0,0,0,0,0.3833,0.3828,0.3783,0.3786,0.3784,0.3777,0.3772,0.3754,0.373,0.3751,0.3749,0.3744,0.3706,0.3697,0.3694,0.3666,0.3677,0.3675,0.3674,0.3673,0.3627,0.3626,0,0,0,0,0,0,0.3838,0.383,0.3785,0.3782,0.3807,0.3776,0.3771,0.3761,0.373,0.3726,0.3744,0.3743,0.3701,0.3696,0.3692,0.3676,0.3675,0.3673,0.3672,0.3627,0.3627,0.3626,0,0,0,0,0,0,0.384,0.3834,0.3787,0.3806,0.3799,0.3775,0.3765,0.376,0.3752,0.3726,0.3721,0.374,0.37,0.3695,0.3677,0.3674,0.3672,0.367,0.3627,0.3627,0.3626,0.3644,0,0,0,0,0,0,0.3841,0.3835,0.3831,0.3806,0.3798,0.3773,0.3764,0.376,0.3749,0.3747,0.372,0.3716,0.37,0.368,0.3675,0.3671,0.3669,0.3627,0.3627,0.3627,0.3643,0.3644,0.3645,0,0,0,0,0,0.3844,0.3837,0.3831,0.3826,0.3793,0.3773,0.3768,0.3751,0.3749,0.3744,0.3727,0.3717,0.3675,0.3678,0.3672,0.3668,0.3627,0.3627,0.3627,0.3643,0.3644,0.3645,0,0,0,0,0,0,0.3861,0.3833,0.3826,0.3811,0.3795,0.3769,0.3763,0.3753,0.3736,0.3735,0.3714,0.3708,0.3691,0.3678,0.3681,0.3655,0.365,0.3649,0.3664,0.3665,0.3666,0.3669,0.3667,0,0,0,0,0,0.3864,0.3851,0.3827,0.3816,0.3808,0.3787,0.3777,0.3766,0.3747,0.374,0.3722,0.3703,0.3685,0.3674,0.3657,0.3641,0.3634,0.3635,0.3636,0.3637,0.3636,0.3626,0.3626,0.3626,0.3626,0.3626,0,0,0.3868,0.3851,0.3844,0.3819,0.3804,0.3791,0.3781,0.3766,0.3756,0.3737,0.3719,0.3705,0.3682,0.3665,0.3657,0.3653,0.3635,0.3637,0.3638,0.3636,0.3626,0.3626,0.3626,0.3626,0.3626,0.3626,0,0,0.3869,0.3855,0.3844,0.3831,0.381,0.3796,0.3793,0.3769,0.3759,0.3741,0.3727,0.3713,0.3684,0.3668,0.3657,0.3652,0.3641,0.3646,0.3651,0.3641,0.3641,0.3641,0.3639,0.3638,0.3645,0.3646,0.3646,0,0.3876,0.3856,0.384,0.3827,0.3815,0.3799,0.3788,0.3774,0.3748,0.3741,0.3738,0.3701,0.3685,0.3663,0.3662,0.3653,0.3649,0.3649,0.3643,0.3643,0.3642,0.364,0.3639,0.3646,0.3646,0.3646,0.3646,0,0.3866,0.3852,0.3846,0.3823,0.3811,0.3798,0.3779,0.3769,0.3758,0.3745,0.3726,0.3706,0.3684,0.3678,0.3667,0.3655,0.3654,0.3647,0.3642,0.3643,0.3641,0.364,0.3647,0.3647,0.3647,0.3647,0,0,0.3877,0.3845,0.3843,0.3832,0.3808,0.3796,0.3782,0.3762,0.3754,0.3736,0.3724,0.3699,0.3693,0.368,0.3667,0.3659,0.3656,0.3653,0.3652,0.3654,0.3641,0.3646,0.3645,0.3649,0.3649,0.3648,0.3642,0,0.3874,0.385,0.3835,0.3817,0.3803,0.3788,0.3776,0.3759,0.3746,0.3731,0.3716,0.3699,0.3692,0.3684,0.3675,0.3658,0.3653,0.3658,0.3636,0.3635,0.3642,0.3643,0.3649,0.3644,0.3641,0.3641,0.3641,0,0.3867,0.3852,0.3833,0.381,0.3803,0.3793,0.3774,0.376,0.374,0.3731,0.3717,0.3704,0.3688,0.3684,0.3661,0.3665,0.3655,0.3645,0.3645,0.3641,0.3638,0.364,0.3642,0.3641,0.3639,0.3639,0.3639,0,0.3877,0.385,0.3836,0.3827,0.38,0.3793,0.3781,0.3761,0.375,0.3733,0.3725,0.3705,0.3694,0.3679,0.3661,0.366,0.3639,0.3634,0.363,0.363,0.3626,0.3626,0.3626,0.362,0.362,0.362,0.362,0,0.3875,0.3864,0.384,0.383,0.3817,0.3799,0.3786,0.3773,0.3755,0.3742,0.3727,0.3715,0.3692,0.3677,0.3662,0.3645,0.364,0.3632,0.3628,0.3633,0.3634,0.3626,0.3625,0.362,0.362,0.362,0.362,0,0.3883,0.3866,0.3849,0.3825,0.3819,0.381,0.3789,0.3779,0.3765,0.3749,0.3744,0.3721,0.3703,0.3683,0.3657,0.3648,0.3631,0.3626,0.3638,0.3636,0.3633,0.3633,0.3626,0.3624,0.362,0.3621,0.3621,0,0.3883,0.3874,0.3849,0.384,0.3829,0.3815,0.3804,0.3785,0.3774,0.3751,0.3743,0.3724,0.3707,0.3678,0.3658,0.3639,0.3633,0.3632,0.3629,0.3635,0.3632,0.3633,0.3632,0.3632,0.3633,0.3633,0.3633,0,0.3884,0.3876,0.3862,0.3844,0.3832,0.3816,0.3801,0.3794,0.3772,0.376,0.3741,0.3729,0.3703,0.3683,0.3661,0.3648,0.3636,0.3634,0.3632,0.3636,0.3644,0.3639,0.364,0.3634,0.3634,0.3634,0.3634,0.3634,0.3887,0.3879,0.3861,0.3844,0.3831,0.3817,0.3806,0.3791,0.3776,0.3754,0.3744,0.3725,0.3705,0.3674,0.3661,0.3645,0.3642,0.3639,0.3638,0.3638,0.3639,0.3647,0.3641,0.3641,0.3641,0.3641,0.3641,0,0.3888,0.3875,0.3861,0.384,0.3827,0.3819,0.3801,0.379,0.3774,0.3757,0.3741,0.372,0.3701,0.368,0.3659,0.3651,0.3645,0.3646,0.3646,0.3643,0.3643,0.3647,0.3651,0.3651,0.3651,0.3651,0.3651,0.3651,0.3886,0.3871,0.3862,0.3839,0.3826,0.3809,0.38,0.3786,0.3772,0.3749,0.3734,0.3721,0.3702,0.368,0.3661,0.3656,0.3649,0.3651,0.3644,0.3644,0.3643,0.3642,0.3646,0.365,0.365,0.3645,0.3645,0.3645]},{"header":{"parameterUnit":"m.s-1","parameterCategory":1,"la1":30.2991,"la2":30.254,"lo1":-89.0895,"lo2":-89.0444,"dy":0.0017,"dx":0.0017,"nx":28,"ny":28,"refTime":"2025-01-22T09:00:00:Z","depth":0,"parameterNumber":3,"parameterNumberName":"V-component_of_WINDS"},"data":[0,0,0,0,0,0,0,0,0,0,0,0,0,0,0,0,0,0,0,0,0,0,0,0,0,0,0,0,0,0,0,0,0,0,0,0,0,0,0,0,0,0,0,0,0,0,0,0,0,0,0,0,0,0,0,0,0,0,-0.7102,-0.7102,0,-0.7132,-0.7133,-0.7133,-0.719,-0.7191,-0.7192,-0.7193,-0.7224,-0.7224,-0.7224,0,0,0,0,0,0,0,0,0,0,0,0,0,-0.7093,-0.7093,-0.7102,-0.7102,-0.7103,-0.7132,-0.7133,-0.7133,-0.719,-0.7191,-0.7193,-0.7194,-0.7224,-0.7224,-0.7224,0,0,0,0,0,0,0,0,0,0,0,0,0,-0.7107,-0.7093,-0.7102,-0.7135,-0.7138,-0.7132,-0.7133,-0.7133,-0.719,-0.7191,-0.7193,-0.7195,-0.7225,-0.7224,-0.7224,-0.7189,0,0,-0.7223,-0.7223,0,0,0,0,0,0,0,0,-0.7107,-0.7108,-0.7129,-0.7132,-0.7136,-0.7159,-0.7141,-0.7152,-0.7189,-0.717,-0.7193,-0.7195,-0.7201,-0.7203,-0.7205,-0.719,-0.7192,-0.7223,-0.7223,-0.7223,-0.7223,0,0,0,0,0,0,0,-0.7106,-0.7107,-0.7114,-0.713,-0.7134,-0.7148,-0.7152,-0.7143,-0.7176,-0.7172,-0.7176,-0.7179,-0.7203,-0.7205,-0.7206,-0.7192,-0.7223,-0.7223,-0.7223,-0.7222,-0.7151,-0.715,0,0,0,0,0,0,-0.71,-0.7106,-0.7113,-0.7115,-0.7125,-0.7147,-0.7151,-0.715,-0.7176,-0.7182,-0.7177,-0.7181,-0.7205,-0.7207,-0.7208,-0.7169,-0.7223,-0.7222,-0.7222,-0.7153,-0.7151,-0.7149,0,0,0,0,0,0,-0.7099,-0.71,-0.7112,-0.7111,-0.7114,-0.7145,-0.7144,-0.715,-0.7152,-0.7181,-0.7187,-0.7173,-0.7206,-0.7208,-0.7193,-0.7171,-0.7222,-0.7222,-0.7155,-0.7152,-0.715,-0.709,0,0,0,0,0,0,-0.7099,-0.7099,-0.7086,-0.7111,-0.7114,-0.7097,-0.7142,-0.7149,-0.7151,-0.7157,-0.7178,-0.7183,-0.7208,-0.7194,-0.7193,-0.7171,-0.7222,-0.7157,-0.7154,-0.7151,-0.7094,-0.7086,-0.7079,0,0,0,0,0,-0.7098,-0.7068,-0.7085,-0.7086,-0.7098,-0.7095,-0.7097,-0.7126,-0.7149,-0.7136,-0.7155,-0.7183,-0.7173,-0.7192,-0.7192,-0.7169,-0.7159,-0.7155,-0.7151,-0.7098,-0.7088,-0.7079,0,0,0,0,0,0,-0.7039,-0.7071,-0.7091,-0.7068,-0.7078,-0.7105,-0.7089,-0.7114,-0.7118,-0.7123,-0.7159,-0.7163,-0.7144,-0.7155,-0.7175,-0.7137,-0.7171,-0.7166,-0.713,-0.7121,-0.7113,-0.711,-0.7221,0,0,0,0,0,-0.7023,-0.7018,-0.7047,-0.7024,-0.7028,-0.7058,-0.7057,-0.7079,-0.7091,-0.7096,-0.7114,-0.7125,-0.7124,-0.7123,-0.7125,-0.7097,-0.7103,-0.7081,-0.7074,-0.7067,-0.7063,-0.705,-0.7041,-0.7137,-0.7137,-0.7137,0,0,-0.6991,-0.7008,-0.7002,-0.7012,-0.7023,-0.7017,-0.7061,-0.7053,-0.7049,-0.7095,-0.7082,-0.7095,-0.711,-0.7089,-0.708,-0.7098,-0.7038,-0.7062,-0.7057,-0.7056,-0.7045,-0.7036,-0.7028,-0.7134,-0.7134,-0.7135,0,0,-0.6928,-0.694,-0.6923,-0.6933,-0.6949,-0.6969,-0.6964,-0.6988,-0.6998,-0.6986,-0.7021,-0.7017,-0.7016,-0.7025,-0.7029,-0.6972,-0.6998,-0.6971,-0.693,-0.6917,-0.6909,-0.6903,-0.6882,-0.6874,-0.6967,-0.6967,-0.6967,0,-0.6885,-0.6878,-0.691,-0.69,-0.6903,-0.6945,-0.6928,-0.6936,-0.6951,-0.6953,-0.6972,-0.6972,-0.6985,-0.6967,-0.6953,-0.6955,-0.6952,-0.6968,-0.6908,-0.6901,-0.6896,-0.6877,-0.6869,-0.6964,-0.6964,-0.6964,-0.6965,0,-0.6824,-0.6819,-0.6803,-0.6817,-0.6819,-0.6804,-0.6835,-0.6833,-0.6855,-0.6873,-0.6861,-0.6878,-0.6883,-0.6881,-0.6902,-0.6866,-0.6876,-0.6901,-0.6935,-0.6883,-0.6865,-0.6858,-0.6959,-0.696,-0.6961,-0.6962,0,0,-0.6724,-0.6757,-0.6751,-0.6758,-0.6779,-0.6776,-0.6764,-0.677,-0.6768,-0.6778,-0.6769,-0.6767,-0.6791,-0.6796,-0.6819,-0.6807,-0.676,-0.6834,-0.6834,-0.6819,-0.6722,-0.6703,-0.6694,-0.6778,-0.6777,-0.6776,-0.6721,0,-0.6666,-0.6647,-0.6677,-0.6652,-0.6647,-0.6688,-0.6678,-0.669,-0.6707,-0.6706,-0.6725,-0.6723,-0.6755,-0.6758,-0.6749,-0.6768,-0.6741,-0.6773,-0.6771,-0.677,-0.6765,-0.6685,-0.6664,-0.6611,-0.6715,-0.6713,-0.6713,0,-0.6594,-0.6601,-0.6576,-0.66,-0.6599,-0.6589,-0.6598,-0.6596,-0.6611,-0.6625,-0.6631,-0.6658,-0.6649,-0.6682,-0.667,-0.6691,-0.6692,-0.6702,-0.6701,-0.6701,-0.6737,-0.6683,-0.6595,-0.6587,-0.6702,-0.6703,-0.6704,0,-0.6523,-0.6526,-0.6512,-0.6517,-0.6544,-0.6536,-0.6548,-0.6564,-0.6566,-0.6574,-0.6576,-0.6582,-0.6585,-0.659,-0.6618,-0.664,-0.6603,-0.6639,-0.6614,-0.6613,-0.6603,-0.6603,-0.6514,-0.6605,-0.6605,-0.6605,-0.6605,0,-0.6455,-0.6437,-0.648,-0.6471,-0.6453,-0.6488,-0.6469,-0.6484,-0.6499,-0.6494,-0.653,-0.6525,-0.6563,-0.6561,-0.6584,-0.6571,-0.6572,-0.6582,-0.6588,-0.6579,-0.6577,-0.658,-0.6584,-0.6603,-0.6603,-0.6604,-0.6604,0,-0.6372,-0.64,-0.6386,-0.6414,-0.6421,-0.6406,-0.643,-0.6423,-0.6443,-0.6436,-0.6436,-0.6468,-0.6468,-0.6497,-0.6504,-0.6519,-0.6497,-0.651,-0.6491,-0.6495,-0.6468,-0.647,-0.6377,-0.6367,-0.6464,-0.6463,-0.6462,0,-0.6326,-0.6314,-0.634,-0.6339,-0.6349,-0.6347,-0.635,-0.6384,-0.6385,-0.6402,-0.6393,-0.6396,-0.6401,-0.64,-0.6424,-0.6429,-0.6442,-0.6409,-0.6443,-0.6434,-0.6442,-0.6442,-0.6441,-0.6402,-0.6401,-0.64,-0.6399,0,-0.6241,-0.6256,-0.6258,-0.6265,-0.6267,-0.6275,-0.6284,-0.6282,-0.6319,-0.6319,-0.632,-0.6323,-0.6331,-0.6334,-0.6344,-0.6356,-0.6383,-0.6388,-0.6383,-0.6372,-0.6362,-0.6367,-0.6471,-0.639,-0.6391,-0.6391,-0.6392,-0.6392,-0.6175,-0.6167,-0.6184,-0.6186,-0.6197,-0.6205,-0.62,-0.622,-0.6221,-0.623,-0.625,-0.6248,-0.6265,-0.6281,-0.6291,-0.629,-0.6307,-0.6299,-0.6297,-0.6294,-0.6289,-0.6363,-0.6292,-0.6293,-0.6293,-0.6293,-0.6293,0,-0.6092,-0.6106,-0.6107,-0.612,-0.6121,-0.6148,-0.616,-0.6159,-0.6157,-0.617,-0.6175,-0.6176,-0.618,-0.6204,-0.6211,-0.6206,-0.6219,-0.6206,-0.6207,-0.6209,-0.6274,-0.6278,-0.6196,-0.6196,-0.6196,-0.6196,-0.6196,-0.6196,-0.6049,-0.6036,-0.6053,-0.6046,-0.606,-0.6058,-0.6063,-0.6072,-0.6082,-0.6083,-0.6086,-0.6102,-0.612,-0.6129,-0.6133,-0.6141,-0.6141,-0.6125,-0.6136,-0.6195,-0.6205,-0.6214,-0.6218,-0.6125,-0.6124,-0.6072,-0.6071,-0.6071]}]]